Location: Nitra
(0.0000°N, 18.0833°E)
Time: 05:21:11
(UTC+01:00)

Cosmos 1680 Rocket - Pass Details

Date: 24 January 2021
Orbit: 761 x 780 km, 74.1° (Epoch: 04 March)

Event Time Altitude Azimuth Distance (km) Brightness Sun altitude
Rises 18:47:22 0° 2° (N) 3,205 6.5 -11.2°
Reaches altitude 10° 18:49:52 10° 10° (N) 2,281 5.7 -11.8°
Maximum altitude 18:54:40 39° 78° (ENE) 1,132 3.9 -12.9°
Drops below altitude 10° 18:59:28 10° 146° (SE) 2,292 5.8 -14.1°
Sets 19:01:59 0° 153° (SSE) 3,221 6.7 -14.7°
